TimePST,TemperatureF,Dew PointF,Humidity,Sea Level PressureIn,VisibilityMPH,Wind Direction,Wind SpeedMPH,Gust SpeedMPH,PrecipitationIn,Events,Conditions,WindDirDegrees,DateUTC
12:56 AM,55.0,19.9,25,30.01,10.0,SW,3.5,-,N/A,,Clear,220,2012-11-16 08:56:00
1:56 AM,55.0,19.9,25,30.01,10.0,SSW,3.5,-,N/A,,Overcast,210,2012-11-16 09:56:00
2:56 AM,55.0,21.0,27,30.00,10.0,SSW,3.5,-,N/A,,Overcast,210,2012-11-16 10:56:00
3:56 AM,54.0,19.9,26,30.00,10.0,WSW,6.9,-,N/A,,Mostly Cloudy,250,2012-11-16 11:56:00
4:56 AM,51.1,19.9,29,30.01,10.0,WSW,5.8,-,N/A,,Clear,250,2012-11-16 12:56:00
5:56 AM,50.0,19.9,31,30.03,10.0,WNW,3.5,-,N/A,,Clear,300,2012-11-16 13:56:00
6:56 AM,51.1,19.9,29,30.05,10.0,WSW,3.5,-,N/A,,Clear,250,2012-11-16 14:56:00
7:56 AM,59.0,21.9,24,30.06,10.0,Calm,Calm,-,N/A,,Clear,0,2012-11-16 15:56:00
8:56 AM,63.0,21.9,21,30.07,10.0,SE,3.5,-,N/A,,Clear,130,2012-11-16 16:56:00
9:56 AM,64.9,23.0,20,30.07,10.0,East,3.5,-,N/A,,Scattered Clouds,80,2012-11-16 17:56:00
10:56 AM,69.1,21.9,17,30.04,10.0,East,3.5,-,N/A,,Clear,80,2012-11-16 18:56:00
11:56 AM,72.0,23.0,16,30.01,10.0,Calm,Calm,-,N/A,,Clear,0,2012-11-16 19:56:00
12:56 PM,73.9,21.9,14,29.98,10.0,Calm,Calm,-,N/A,,Partly Cloudy,0,2012-11-16 20:56:00
1:56 PM,77.0,21.0,12,29.96,10.0,Calm,Calm,-,N/A,,Overcast,0,2012-11-16 21:56:00
2:56 PM,78.1,21.9,12,29.94,10.0,SE,5.8,-,N/A,,Overcast,140,2012-11-16 22:56:00
3:56 PM,78.1,26.1,15,29.93,10.0,South,8.1,-,N/A,,Scattered Clouds,170,2012-11-16 23:56:00
4:56 PM,73.9,27.0,18,29.94,10.0,SW,5.8,-,N/A,,Mostly Cloudy,220,2012-11-17 00:56:00
5:56 PM,73.0,32.0,22,29.95,10.0,SSW,5.8,-,N/A,,Overcast,210,2012-11-17 01:56:00
6:56 PM,70.0,36.0,29,29.95,10.0,SW,5.8,-,N/A,,Clear,230,2012-11-17 02:56:00
7:56 PM,72.0,35.1,26,29.96,10.0,SSW,4.6,-,N/A,,Clear,200,2012-11-17 03:56:00
8:56 PM,69.1,37.0,31,29.96,10.0,SSW,5.8,-,N/A,,Clear,210,2012-11-17 04:56:00
9:56 PM,64.9,37.0,36,29.97,10.0,WSW,3.5,-,N/A,,Clear,240,2012-11-17 05:56:00
10:56 PM,66.0,37.9,36,29.97,10.0,West,4.6,-,N/A,,Clear,260,2012-11-17 06:56:00
11:56 PM,66.9,39.0,36,29.96,10.0,WSW,8.1,-,N/A,,Clear,250,2012-11-17 07:56:00